Time,TemperatureF,DewpointF,PressureIn,WindDirection,WindDirectionDegrees,WindSpeedMPH,WindSpeedGustMPH,Humidity,HourlyPrecipIn,Conditions,Clouds,dailyrainin,SoftwareType,DateUTC
2013-02-04 00:13:00,26.8,22.0,29.82,SSE,161,2.0,9.0,81,0.00,,,0.00,weatherlink.com 1.10,2013-02-04 06:13:00,
2013-02-04 00:28:00,27.6,23.0,29.82,SSE,164,6.0,10.0,81,0.00,,,0.00,weatherlink.com 1.10,2013-02-04 06:28:00,
2013-02-04 00:43:00,28.5,23.0,29.81,SSE,166,3.0,9.0,81,0.00,,,0.00,weatherlink.com 1.10,2013-02-04 06:43:00,
2013-02-04 00:58:00,29.2,24.0,29.80,SSE,166,3.0,6.0,80,0.00,,,0.00,weatherlink.com 1.10,2013-02-04 06:58:00,
2013-02-04 01:13:00,29.6,24.0,29.80,SSE,166,0.0,3.0,80,0.00,,,0.00,weatherlink.com 1.10,2013-02-04 07:13:00,
2013-02-04 01:28:00,29.9,25.0,29.80,SSE,167,0.0,8.0,81,0.00,,,0.00,weatherlink.com 1.10,2013-02-04 07:28:00,
2013-02-04 01:43:00,32.2,27.0,29.79,SW,220,6.0,17.0,82,0.00,,,0.00,weatherlink.com 1.10,2013-02-04 07:43:00,
2013-02-04 01:58:00,34.4,28.0,29.79,SW,228,12.0,14.0,77,0.00,,,0.00,weatherlink.com 1.10,2013-02-04 07:58:00,
2013-02-04 02:13:00,35.0,28.0,29.79,SW,234,4.0,11.0,75,0.00,,,0.00,weatherlink.com 1.10,2013-02-04 08:13:00,
2013-02-04 02:28:00,35.1,28.0,29.80,SW,233,3.0,9.0,75,0.00,,,0.00,weatherlink.com 1.10,2013-02-04 08:28:00,
2013-02-04 02:43:00,35.2,28.0,29.80,SW,234,8.0,13.0,75,0.00,,,0.00,weatherlink.com 1.10,2013-02-04 08:43:00,
2013-02-04 02:58:00,35.7,28.0,29.81,West,268,4.0,10.0,74,0.00,,,0.00,weatherlink.com 1.10,2013-02-04 08:58:00,
2013-02-04 03:13:00,35.3,28.0,29.80,West,272,3.0,11.0,74,0.00,,,0.00,weatherlink.com 1.10,2013-02-04 09:13:00,
2013-02-04 03:28:00,35.1,28.0,29.80,West,273,6.0,9.0,75,0.00,,,0.00,weatherlink.com 1.10,2013-02-04 09:28:00,
2013-02-04 03:43:00,34.6,27.0,29.80,West,275,4.0,10.0,75,0.00,,,0.00,weatherlink.com 1.10,2013-02-04 09:43:00,
2013-02-04 03:58:00,34.2,27.0,29.80,West,279,3.0,11.0,76,0.00,,,0.00,weatherlink.com 1.10,2013-02-04 09:58:00,
2013-02-04 04:13:00,33.7,27.0,29.81,West,280,5.0,8.0,77,0.00,,,0.00,weatherlink.com 1.10,2013-02-04 10:13:00,
2013-02-04 04:28:00,33.1,27.0,29.81,NW,310,9.0,14.0,78,0.00,,,0.00,weatherlink.com 1.10,2013-02-04 10:28:00,
2013-02-04 04:43:00,32.5,27.0,29.82,NNW,333,7.0,14.0,79,0.00,,,0.00,weatherlink.com 1.10,2013-02-04 10:43:00,
2013-02-04 04:58:00,31.8,27.0,29.82,NW,313,6.0,18.0,81,0.00,,,0.00,weatherlink.com 1.10,2013-02-04 10:58:00,
2013-02-04 05:13:00,30.4,26.0,29.83,NW,312,13.0,17.0,82,0.00,,,0.00,weatherlink.com 1.10,2013-02-04 11:13:00,
2013-02-04 05:28:00,28.9,24.0,29.85,NW,324,7.0,14.0,83,0.00,,,0.00,weatherlink.com 1.10,2013-02-04 11:28:00,
2013-02-04 05:43:00,27.7,23.0,29.86,NW,323,8.0,16.0,83,0.00,,,0.00,weatherlink.com 1.10,2013-02-04 11:43:00,
2013-02-04 05:58:00,26.5,22.0,29.86,NW,318,3.0,15.0,84,0.00,,,0.00,weatherlink.com 1.10,2013-02-04 11:58:00,
2013-02-04 06:13:00,25.3,21.0,29.88,NW,319,7.0,13.0,84,0.00,,,0.00,weatherlink.com 1.10,2013-02-04 12:13:00,
2013-02-04 06:28:00,24.6,21.0,29.88,NW,309,8.0,18.0,85,0.00,,,0.00,weatherlink.com 1.10,2013-02-04 12:28:00,
2013-02-04 06:43:00,24.0,20.0,29.90,NW,314,10.0,16.0,85,0.00,,,0.00,weatherlink.com 1.10,2013-02-04 12:43:00,
2013-02-04 06:59:00,23.4,20.0,29.91,NW,326,6.0,18.0,85,0.00,,,0.00,weatherlink.com 1.10,2013-02-04 12:59:00,
2013-02-04 07:14:00,23.2,20.0,29.91,NW,324,6.0,17.0,86,0.00,,,0.00,weatherlink.com 1.10,2013-02-04 13:14:00,
2013-02-04 07:29:00,23.1,20.0,29.93,NNW,333,7.0,15.0,86,0.00,,,0.00,weatherlink.com 1.10,2013-02-04 13:29:00,
2013-02-04 07:44:00,23.1,19.0,29.93,NNW,327,16.0,16.0,85,0.00,,,0.00,weatherlink.com 1.10,2013-02-04 13:44:00,
2013-02-04 07:59:00,23.2,19.0,29.95,NW,323,12.0,15.0,85,0.00,,,0.00,weatherlink.com 1.10,2013-02-04 13:59:00,
2013-02-04 08:14:00,23.1,19.0,29.95,NW,319,7.0,15.0,85,0.00,,,0.00,weatherlink.com 1.10,2013-02-04 14:14:00,
2013-02-04 08:29:00,22.9,19.0,29.96,NW,321,14.0,18.0,85,0.00,,,0.00,weatherlink.com 1.10,2013-02-04 14:29:00,
2013-02-04 08:44:00,22.4,18.0,29.97,North,360,7.0,16.0,84,0.00,,,0.00,weatherlink.com 1.10,2013-02-04 14:44:00,
2013-02-04 08:59:00,21.6,18.0,29.97,North,349,6.0,17.0,85,0.00,,,0.00,weatherlink.com 1.10,2013-02-04 14:59:00,
2013-02-04 09:14:00,21.4,18.0,29.98,NW,319,5.0,16.0,85,0.00,,,0.00,weatherlink.com 1.10,2013-02-04 15:14:00,
2013-02-04 09:29:00,21.5,18.0,29.98,NNW,335,6.0,14.0,85,0.00,,,0.00,weatherlink.com 1.10,2013-02-04 15:29:00,
2013-02-04 09:44:00,20.6,17.0,29.99,WNW,296,6.0,20.0,84,0.00,,,0.00,weatherlink.com 1.10,2013-02-04 15:44:00,
2013-02-04 09:59:00,20.2,16.0,30.00,NNW,332,10.0,18.0,84,0.00,,,0.00,weatherlink.com 1.10,2013-02-04 15:59:00,
2013-02-04 10:14:00,19.9,16.0,30.01,NNW,341,12.0,19.0,84,0.00,,,0.00,weatherlink.com 1.10,2013-02-04 16:14:00,
2013-02-04 10:29:00,20.5,16.0,30.03,NNW,332,11.0,20.0,84,0.00,,,0.00,weatherlink.com 1.10,2013-02-04 16:29:00,
2013-02-04 10:44:00,20.7,16.0,30.04,NNW,328,4.0,16.0,83,0.00,,,0.00,weatherlink.com 1.10,2013-02-04 16:44:00,
2013-02-04 10:59:00,20.8,16.0,30.05,NW,323,10.0,20.0,82,0.00,,,0.00,weatherlink.com 1.10,2013-02-04 16:59:00,
2013-02-04 11:14:00,21.6,17.0,30.05,North,355,10.0,17.0,81,0.00,,,0.00,weatherlink.com 1.10,2013-02-04 17:14:00,
2013-02-04 11:29:00,22.3,17.0,30.05,North,355,6.0,19.0,80,0.00,,,0.00,weatherlink.com 1.10,2013-02-04 17:29:00,
2013-02-04 11:44:00,22.8,18.0,30.05,NNW,348,5.0,18.0,80,0.00,,,0.00,weatherlink.com 1.10,2013-02-04 17:44:00,
2013-02-04 11:59:00,23.1,18.0,30.04,NNE,13,0.0,16.0,80,0.00,,,0.00,weatherlink.com 1.10,2013-02-04 17:59:00,
2013-02-04 12:14:00,24.0,18.0,30.03,North,349,6.0,13.0,79,0.00,,,0.00,weatherlink.com 1.10,2013-02-04 18:14:00,
2013-02-04 12:29:00,24.6,18.0,30.01,NNE,30,11.0,15.0,77,0.00,,,0.00,weatherlink.com 1.10,2013-02-04 18:29:00,
2013-02-04 12:44:00,24.9,19.0,30.01,NNE,15,3.0,16.0,77,0.00,,,0.00,weatherlink.com 1.10,2013-02-04 18:44:00,
2013-02-04 12:59:00,25.8,19.0,30.00,NNW,339,6.0,15.0,76,0.00,,,0.00,weatherlink.com 1.10,2013-02-04 18:59:00,
2013-02-04 13:14:00,25.2,19.0,30.00,North,5,7.0,14.0,76,0.00,,,0.00,weatherlink.com 1.10,2013-02-04 19:14:00,
2013-02-04 13:29:00,25.2,19.0,30.00,NE,34,7.0,13.0,76,0.00,,,0.00,weatherlink.com 1.10,2013-02-04 19:29:00,
2013-02-04 13:44:00,25.7,19.0,30.00,NW,320,6.0,9.0,76,0.00,,,0.00,weatherlink.com 1.10,2013-02-04 19:44:00,
2013-02-04 13:59:00,25.7,19.0,30.02,WNW,300,6.0,9.0,75,0.00,,,0.00,weatherlink.com 1.10,2013-02-04 19:59:00,
2013-02-04 14:14:00,25.4,19.0,30.02,NW,312,6.0,7.0,76,0.00,,,0.00,weatherlink.com 1.10,2013-02-04 20:14:00,
2013-02-04 14:29:00,25.2,19.0,30.03,NW,317,8.0,8.0,77,0.00,,,0.00,weatherlink.com 1.10,2013-02-04 20:29:00,
2013-02-04 14:44:00,25.1,19.0,30.03,NW,318,5.0,8.0,77,0.00,,,0.00,weatherlink.com 1.10,2013-02-04 20:44:00,
2013-02-04 14:59:00,24.9,19.0,30.04,NW,317,3.0,9.0,77,0.00,,,0.00,weatherlink.com 1.10,2013-02-04 20:59:00,
2013-02-04 15:14:00,24.8,19.0,30.03,NW,326,0.0,8.0,78,0.00,,,0.00,weatherlink.com 1.10,2013-02-04 21:14:00,
2013-02-04 15:29:00,24.8,19.0,30.04,NW,317,0.0,9.0,77,0.00,,,0.00,weatherlink.com 1.10,2013-02-04 21:29:00,
2013-02-04 15:45:00,24.5,19.0,30.04,NW,320,6.0,9.0,78,0.00,,,0.00,weatherlink.com 1.10,2013-02-04 21:45:00,
2013-02-04 15:59:00,24.2,18.0,30.03,NW,321,0.0,6.0,78,0.00,,,0.00,weatherlink.com 1.10,2013-02-04 21:59:00,
2013-02-04 16:14:00,24.2,19.0,30.03,NW,321,0.0,6.0,79,0.00,,,0.00,weatherlink.com 1.10,2013-02-04 22:14:00,
2013-02-04 16:29:00,23.8,18.0,30.01,NW,321,0.0,0.0,79,0.00,,,0.00,weatherlink.com 1.10,2013-02-04 22:29:00,
2013-02-04 16:44:00,23.8,18.0,30.01,NW,321,0.0,0.0,78,0.00,,,0.00,weatherlink.com 1.10,2013-02-04 22:44:00,
2013-02-04 16:59:00,23.8,18.0,30.00,NW,321,0.0,0.0,79,0.00,,,0.00,weatherlink.com 1.10,2013-02-04 22:59:00,
2013-02-04 17:14:00,23.7,18.0,30.00,NW,321,0.0,3.0,79,0.00,,,0.00,weatherlink.com 1.10,2013-02-04 23:14:00,
2013-02-04 17:30:00,23.6,18.0,30.01,NW,321,0.0,0.0,79,0.00,,,0.00,weatherlink.com 1.10,2013-02-04 23:30:00,
2013-02-04 17:45:00,23.5,18.0,30.01,NW,321,0.0,0.0,79,0.00,,,0.00,weatherlink.com 1.10,2013-02-04 23:45:00,
2013-02-04 18:00:00,23.3,18.0,30.01,NW,321,0.0,0.0,79,0.00,,,0.00,weatherlink.com 1.10,2013-02-05 00:00:00,
2013-02-04 18:15:00,22.9,17.0,30.01,NW,321,0.0,0.0,79,0.00,,,0.00,weatherlink.com 1.10,2013-02-05 00:15:00,
2013-02-04 18:30:00,22.6,17.0,30.01,NW,321,0.0,0.0,79,0.00,,,0.00,weatherlink.com 1.10,2013-02-05 00:30:00,
2013-02-04 18:45:00,22.1,17.0,30.00,NW,321,0.0,0.0,80,0.00,,,0.00,weatherlink.com 1.10,2013-02-05 00:45:00,
2013-02-04 19:00:00,21.5,17.0,30.00,NW,321,0.0,0.0,81,0.00,,,0.00,weatherlink.com 1.10,2013-02-05 01:00:00,
2013-02-04 19:15:00,21.1,16.0,30.00,NW,321,0.0,0.0,81,0.00,,,0.00,weatherlink.com 1.10,2013-02-05 01:15:00,
2013-02-04 19:30:00,20.6,16.0,30.00,NW,321,0.0,0.0,82,0.00,,,0.00,weatherlink.com 1.10,2013-02-05 01:30:00,
2013-02-04 19:45:00,20.1,15.0,30.00,NW,321,0.0,0.0,82,0.00,,,0.00,weatherlink.com 1.10,2013-02-05 01:45:00,
2013-02-04 20:00:00,19.1,15.0,29.98,NW,321,0.0,0.0,83,0.00,,,0.00,weatherlink.com 1.10,2013-02-05 02:00:00,
2013-02-04 20:15:00,18.8,15.0,29.98,NW,321,0.0,0.0,84,0.00,,,0.00,weatherlink.com 1.10,2013-02-05 02:15:00,
2013-02-04 20:30:00,18.4,15.0,29.99,NW,321,0.0,0.0,85,0.00,,,0.00,weatherlink.com 1.10,2013-02-05 02:30:00,
2013-02-04 20:45:00,17.7,14.0,29.97,NW,321,0.0,0.0,85,0.00,,,0.00,weatherlink.com 1.10,2013-02-05 02:45:00,
2013-02-04 21:00:00,17.4,14.0,29.97,NW,321,0.0,4.0,86,0.00,,,0.00,weatherlink.com 1.10,2013-02-05 03:00:00,
2013-02-04 21:15:00,17.1,14.0,29.99,NW,321,0.0,0.0,86,0.00,,,0.00,weatherlink.com 1.10,2013-02-05 03:15:00,
2013-02-04 21:30:00,17.0,14.0,30.00,NW,321,0.0,3.0,86,0.00,,,0.00,weatherlink.com 1.10,2013-02-05 03:30:00,
2013-02-04 21:45:00,17.2,14.0,30.00,NW,320,4.0,5.0,87,0.00,,,0.00,weatherlink.com 1.10,2013-02-05 03:45:00,
2013-02-04 22:00:00,17.9,15.0,29.99,NW,317,0.0,6.0,88,0.00,,,0.00,weatherlink.com 1.10,2013-02-05 04:00:00,
2013-02-04 22:15:00,18.5,16.0,29.99,NW,311,4.0,7.0,88,0.00,,,0.00,weatherlink.com 1.10,2013-02-05 04:15:00,
2013-02-04 22:30:00,19.1,16.0,29.98,WNW,300,0.0,8.0,89,0.00,,,0.00,weatherlink.com 1.10,2013-02-05 04:30:00,
2013-02-04 22:45:00,19.6,17.0,29.98,WNW,283,0.0,7.0,89,0.00,,,0.00,weatherlink.com 1.10,2013-02-05 04:45:00,
2013-02-04 23:00:00,20.0,17.0,29.96,WSW,237,1.0,4.0,89,0.00,,,0.00,weatherlink.com 1.10,2013-02-05 05:00:00,
2013-02-04 23:15:00,20.4,18.0,29.96,SW,218,3.0,7.0,89,0.00,,,0.00,weatherlink.com 1.10,2013-02-05 05:15:00,
2013-02-04 23:30:00,20.8,18.0,29.95,SSW,210,0.0,6.0,88,0.00,,,0.00,weatherlink.com 1.10,2013-02-05 05:30:00,
2013-02-04 23:45:00,20.9,18.0,29.95,SSW,198,0.0,7.0,88,0.00,,,0.00,weatherlink.com 1.10,2013-02-05 05:45:00,